[[{"header":{"parameterUnit":"m.s-1","parameterCategory":1,"la1":30.2992,"la2":30.254,"lo1":-89.0895,"lo2":-89.0443,"dy":0.0025,"dx":0.0025,"nx":19,"ny":19,"refTime":"2026-03-07T09:00:00:Z","depth":0,"parameterNumber":2,"parameterNumberName":"U-component_of_WINDS"},"data":[0,0,0,-4.5609,-4.5612,-4.5786,-4.5787,-4.601,-4.6012,0,0,0,0,0,0,0,0,0,0,0,-4.5557,-4.5558,-4.5608,-4.5613,-4.5786,-4.5787,-4.601,-4.6012,0,0,0,0,0,0,0,0,0,0,0,-4.5556,-4.5558,-4.556,-4.5613,-4.5786,-4.5787,-4.6009,-4.5878,0,0,0,0,0,0,0,0,0,0,-4.5709,-4.566,-4.5557,-4.556,-4.5614,-4.5786,-4.5787,-4.5872,-4.5886,-4.5932,0,-4.5971,0,-4.5995,-4.6027,-4.6028,0,0,0,-4.5613,-4.5648,-4.5696,-4.556,-4.5616,-4.5786,-4.5708,-4.588,-4.5896,-4.5951,-4.5974,-4.5982,-4.5999,-4.6028,-4.603,-4.6288,-4.6289,0,0,-4.5604,-4.5587,-4.5684,-4.5706,-4.5678,-4.5703,-4.5713,-4.589,-4.5914,-4.5975,-4.5987,-4.6002,-4.603,-4.6032,-4.6287,-4.6289,0,0,0,-4.5576,-4.5581,-4.5624,-4.5697,-4.5728,-4.5708,-4.572,-4.5906,-4.5922,-4.599,-4.6005,-4.6031,-4.6034,-4.6286,-4.6288,-4.6329,0,0,0,-4.557,-4.5564,-4.562,-4.5612,-4.5725,-4.5819,-4.5733,-4.5909,-4.593,-4.6004,-4.6031,-4.6036,-4.6285,-4.6287,-4.6326,-4.6351,0,0,0,-4.5546,-4.5562,-4.5587,-4.561,-4.5684,-4.5817,-4.5842,-4.5914,-4.5939,-4.6028,-4.6037,-4.6284,-4.6286,-4.6322,-4.6345,-4.6414,0,0,0,-4.5515,-4.5621,-4.5587,-4.5712,-4.5683,-4.5842,-4.5841,-4.5961,-4.6042,-4.6032,-4.6285,-4.6288,-4.6321,-4.6342,-4.641,-4.6467,-4.649,0,0,-4.5639,-4.5635,-4.571,-4.5685,-4.5845,-4.5817,-4.5984,-4.6074,-4.6098,-4.6224,-4.623,-4.6327,-4.6345,-4.6413,-4.6627,-4.6644,0,0,0,-4.5744,-4.5798,-4.5844,-4.5921,-4.5993,-4.6057,-4.6123,-4.6157,-4.6265,-4.6159,-4.6372,-4.6383,-4.6424,-4.6452,-4.6467,-4.6503,-4.63,-4.63,-4.63,-4.5895,-4.5921,-4.6047,-4.6094,-4.617,-4.6239,-4.6302,-4.636,-4.6363,-4.6414,-4.645,-4.6576,-4.6609,-4.662,-4.6657,-4.6484,-4.6484,-4.6485,-4.6485,-4.6078,-4.6157,-4.6163,-4.6286,-4.6314,-4.6419,-4.6492,-4.6491,-4.6594,-4.655,-4.6588,-4.6535,-4.6639,-4.6673,-4.6488,-4.6488,-4.6487,-4.6487,-4.6487,-4.6177,-4.622,-4.6261,-4.6377,-4.6464,-4.651,-4.6608,-4.6631,-4.6653,-4.669,-4.6731,-4.673,-4.6731,-4.6708,-4.6709,-4.6709,-4.671,-4.671,-4.671,-4.6262,-4.6307,-4.6387,-4.6476,-4.6529,-4.6603,-4.6678,-4.6732,-4.6797,-4.6806,-4.6806,-4.6804,-4.6645,-4.6603,-4.6717,-4.6716,-4.6715,-4.6714,-4.6714,-4.6434,-4.64,-4.6522,-4.6577,-4.6684,-4.677,-4.6799,-4.6908,-4.6957,-4.7005,-4.6998,-4.6877,-4.6874,-4.6862,-4.6827,-4.6992,-4.6992,-4.6992,-4.6992,-4.6515,-4.6517,-4.6649,-4.6735,-4.6822,-4.6862,-4.7002,-4.7063,-4.712,-4.7152,-4.7133,-4.709,-4.7077,-4.7081,-4.7065,-4.7033,-4.7246,-4.7247,-4.7247,-4.6622,-4.6634,-4.6747,-4.6803,-4.689,-4.6965,-4.7098,-4.7197,-4.7255,-4.7258,-4.7178,-4.7167,-4.7098,-4.7075,-4.707,-4.7044,-4.6985,0,0]},{"header":{"parameterUnit":"m.s-1","parameterCategory":1,"la1":30.2992,"la2":30.254,"lo1":-89.0895,"lo2":-89.0443,"dy":0.0025,"dx":0.0025,"nx":19,"ny":19,"refTime":"2026-03-07T09:00:00:Z","depth":0,"parameterNumber":3,"parameterNumberName":"V-component_of_WINDS"},"data":[0,0,0,1.9779,1.978,1.9843,1.9843,1.9917,1.9917,0,0,0,0,0,0,0,0,0,0,0,1.9754,1.9754,1.9779,1.978,1.9843,1.9843,1.9916,1.9917,0,0,0,0,0,0,0,0,0,0,0,1.9754,1.9754,1.9754,1.978,1.9843,1.9843,1.9916,1.9872,0,0,0,0,0,0,0,0,0,0,1.9812,1.9782,1.9754,1.9754,1.978,1.9843,1.9843,1.987,1.9874,1.9884,0,1.989,0,1.9905,1.9921,1.9922,0,0,0,1.9784,1.9778,1.9801,1.9754,1.9781,1.9843,1.9816,1.9872,1.9878,1.9891,1.9891,1.9894,1.9906,1.9922,1.9922,1.9964,1.9964,0,0,1.9781,1.9762,1.9797,1.9804,1.9793,1.9814,1.9818,1.9876,1.9876,1.9892,1.9896,1.9907,1.9922,1.9923,1.9964,1.9964,0,0,0,1.9768,1.9759,1.9781,1.9801,1.9813,1.9816,1.982,1.9873,1.9882,1.9897,1.9908,1.9923,1.9923,1.9964,1.9964,1.9946,0,0,0,1.9766,1.9752,1.9779,1.9768,1.9812,1.9843,1.9816,1.9878,1.9885,1.9908,1.9923,1.9924,1.9964,1.9964,1.9947,1.994,0,0,0,1.9752,1.975,1.9757,1.9767,1.9793,1.9843,1.9855,1.988,1.9891,1.9922,1.9924,1.9964,1.9964,1.9947,1.9941,1.9948,0,0,0,1.9731,1.9738,1.9756,1.9769,1.9792,1.9831,1.9855,1.9884,1.9908,1.9923,1.9964,1.9964,1.9947,1.9942,1.9948,1.995,1.9949,0,0,1.9729,1.9737,1.9746,1.9765,1.9795,1.9823,1.9851,1.989,1.9911,1.9946,1.9947,1.9946,1.9941,1.9948,1.9947,1.9946,0,0,0,1.9739,1.9746,1.9758,1.978,1.9811,1.9839,1.9876,1.9892,1.9923,1.9924,1.9951,1.9948,1.9953,1.9955,1.9954,1.996,1.9964,1.9964,1.9964,1.9708,1.9736,1.9754,1.9789,1.9811,1.9852,1.9872,1.99,1.9919,1.9926,1.9936,1.9932,1.9934,1.9933,1.994,1.9939,1.9939,1.9939,1.9939,1.9709,1.9724,1.9753,1.9781,1.981,1.9834,1.9876,1.9889,1.9917,1.9926,1.9931,1.9939,1.9931,1.9938,1.9937,1.9938,1.9938,1.9938,1.9938,1.9692,1.9704,1.9724,1.9762,1.9789,1.9825,1.9852,1.9878,1.9902,1.9907,1.9923,1.9923,1.9928,1.9913,1.9913,1.9913,1.9913,1.9913,1.9913,1.9667,1.969,1.9709,1.9746,1.9766,1.9796,1.984,1.9861,1.989,1.9907,1.9907,1.9928,1.9925,1.9924,1.9913,1.9913,1.9913,1.9913,1.9913,1.9659,1.9666,1.9695,1.9715,1.9763,1.979,1.9824,1.9865,1.9886,1.9899,1.992,1.9913,1.9922,1.9923,1.9923,1.9912,1.9912,1.9912,1.9912,1.9645,1.9653,1.9692,1.9723,1.9757,1.9791,1.9827,1.9863,1.9901,1.9917,1.9922,1.9924,1.9924,1.9934,1.9935,1.9935,1.9927,1.9927,1.9927,1.9643,1.9656,1.968,1.9718,1.9759,1.9794,1.9829,1.9866,1.991,1.9929,1.993,1.993,1.9933,1.9932,1.9949,1.9949,1.995,0,0]}]]